Flag for Germany Weather past 2 weeks in Hanau, Hesse, Germany

Now
63 °F

Sunny.


Feels Like: 63 °F
Forecast: 47 / 69 °F
Wind: 3 mph from North

Location: Frankfurt-M-Flughafen Airport

Current Time: May 22, 2015 at 11:45:13 AM

Latest Report: May 22, 2015 at 11:20 AM


Visibility: 10 mi

Pressure: 30.30 "Hg

Humidity: 37%

Dew point: 36 °F

Location of HanauLocation

Historic Weather in Hanau — Graph

°F

Hanau temperature yesterday

Maximum temperature yesterday: 64 °F (at 4:20 PM)
Minimum temperature yesterday: 41 °F (at 3:20 AM)
Average temperature yesterday: 53 °F

Past Weeks' High & Low Weather Summary

 TemperatureHumidityPressure
High84 °F (May 12, 4:20 PM)94% (May 9, 9:20 PM)30.33 "Hg (May 9, 9:20 PM)
Low39 °F (May 22, 4:50 AM)23% (May 18, 3:20 PM)29.68 "Hg (May 18, 7:20 PM)
Average59 °F59%30.06 "Hg
* Reported May 7 10:20 AM — May 22 10:50 AM, Hanau, Weather by CustomWeather, © 2015

Note: Actual official high and low records may vary slightly from our data, if they occured in-between our weather recording intervals... More about our weather records

Advertising

Hanau weather history for previous 24 hours

 ConditionsComfort  
Time TempWeatherWind HumidityBarometerVisibility
10:50 AM
Fri, May 22
63 °FSunny.2 mph42%30.30 "Hg10 mi
10:20 AM61 °FPassing clouds.2 mph45%30.33 "HgN/A
9:50 AM57 °FPassing clouds.2 mph51%30.33 "HgN/A
9:20 AM55 °FPassing clouds.3 mph51%30.33 "HgN/A
8:50 AM54 °FSunny.3 mph58%30.33 "Hg10 mi
8:20 AM52 °FPassing clouds.3 mph62%30.33 "HgN/A
7:50 AM50 °FSunny.6 mph67%30.33 "Hg10 mi
7:20 AM48 °FPassing clouds.5 mph71%30.33 "HgN/A
6:50 AM46 °FSunny.7 mph76%30.33 "Hg10 mi
6:20 AM45 °FClear.6 mph81%30.33 "Hg10 mi
5:50 AM43 °FClear.5 mph81%30.33 "Hg10 mi
5:20 AM45 °FClear.5 mph87%30.33 "Hg10 mi
4:50 AM39 °FClear.3 mph93%30.33 "Hg10 mi
4:20 AM41 °FClear.6 mph87%30.33 "Hg10 mi
3:50 AM41 °FPassing clouds.3 mph87%30.33 "HgN/A
3:20 AM41 °FFog.3 mph87%30.33 "HgN/A
2:50 AM41 °FClear.2 mph87%30.33 "Hg10 mi
2:20 AM41 °FClear.2 mph87%30.33 "Hg10 mi
1:50 AM43 °FClear.1 mph87%30.33 "Hg10 mi
1:20 AM43 °FClear.2 mph87%30.33 "Hg10 mi
12:50 AM45 °FClear.No wind81%30.33 "Hg10 mi
12:20 AM45 °FClear.1 mph81%30.33 "Hg10 mi
11:20 PM
Thu, May 21
46 °FClear.1 mph76%30.33 "Hg10 mi
10:50 PM48 °FClear.1 mph71%30.30 "Hg10 mi
10:20 PM50 °FClear.1 mph67%30.30 "Hg10 mi
9:50 PM50 °FSunny.2 mph62%30.30 "Hg10 mi
9:20 PM54 °FPassing clouds.6 mph54%30.30 "HgN/A
8:50 PM61 °FPassing clouds.5 mph36%30.27 "HgN/A
8:20 PM61 °FPassing clouds.7 mph34%30.27 "HgN/A
7:50 PM63 °FSunny.7 mph32%30.27 "Hg10 mi
7:20 PM63 °FPassing clouds.9 mph32%30.27 "HgN/A
6:50 PM63 °FPassing clouds.9 mph32%30.27 "HgN/A
6:20 PM64 °FPassing clouds.8 mph30%30.27 "HgN/A
5:50 PM63 °FSunny.10 mph32%30.27 "Hg10 mi
5:20 PM64 °FPassing clouds.10 mph32%30.27 "HgN/A
4:50 PM64 °FPassing clouds.8 mph30%30.27 "HgN/A
4:20 PM64 °FPassing clouds.10 mph30%30.27 "HgN/A
3:50 PM61 °FPassing clouds.14 mph34%30.27 "HgN/A
3:20 PM63 °FPassing clouds.12 mph37%30.27 "HgN/A
2:50 PM61 °FSunny.10 mph34%30.27 "Hg10 mi
2:20 PM61 °FSunny.12 mph34%30.27 "Hg10 mi
1:50 PM61 °FPassing clouds.10 mph34%30.27 "HgN/A
1:20 PM61 °FPassing clouds.10 mph36%30.27 "HgN/A
12:50 PM57 °FPassing clouds.13 mph41%30.27 "HgN/A
12:20 PM57 °FPassing clouds.12 mph41%30.27 "HgN/A
11:20 AM57 °FPassing clouds.7 mph39%30.27 "HgN/A
Weather by CustomWeather, © 2015

See weather overviewHow to use our weather pages